K5UBE Weather Reports


time (UTC)temp
F
wind
direction
speed
knots
gust
knots
rain 1hr
in
rain 24hr
in
rain mn
in
humidity
%
barometer
mb
20260510192446 54 64 8.7 18.2 0.00 0.00 0.00 87 1026.0
20260510191942 54 49 7.8 11.3 0.00 0.00 0.00 87 1026.1
20260510191438 53 33 10.4 13.0 0.00 0.00 0.00 86 1026.3
20260510190936 53 359 7.8 16.5 0.00 0.00 0.00 87 1026.2
20260510190433 54 46 6.1 8.7 0.00 0.00 0.00 87 1026.2
20260510185929 54 65 13.0 16.5 0.00 0.00 0.00 86 1025.9
20260510185427 53 56 7.8 15.6 0.00 0.00 0.00 85 1026.3
20260510184924 54 52 6.1 13.9 0.00 0.00 0.00 85 1026.5
20260510184421 54 48 5.2 9.6 0.00 0.00 0.00 84 1026.7
20260510183920 54 46 6.1 8.7 0.00 0.00 0.00 83 1026.6
20260510183417 54 58 4.3 9.6 0.00 0.00 0.00 82 1026.8
20260510182409 56 52 7.0 11.3 0.00 0.00 0.00 78 1026.6
20260510181904 56 60 7.0 9.6 0.00 0.00 0.00 75 1026.5
20260510181402 56 333 7.0 9.6 0.00 0.00 0.00 76 1026.6
20260510180858 56 340 5.2 7.0 0.00 0.00 0.00 74 1026.5
20260510180356 57 47 3.5 7.8 0.00 0.00 0.00 73 1026.3
20260510175853 57 24 3.5 7.0 0.00 0.00 0.00 71 1026.5
20260510175348 58 336 5.2 13.9 0.00 0.00 0.00 70 1026.2
20260510174844 59 5 6.1 8.7 0.00 0.00 0.00 67 1026.2
20260510174342 59 70 6.1 12.2 0.00 0.00 0.00 66 1025.8
20260510173838 58 51 3.5 12.2 0.00 0.00 0.00 67 1025.6
20260510173334 58 49 12.2 18.2 0.00 0.00 0.00 69 1025.4
20260510172831 59 20 2.6 9.6 0.00 0.00 0.00 65 1025.1
20260510172327 60 48 7.8 13.0 0.00 0.00 0.00 64 1024.8
20260510171823 59 56 5.2 13.9 0.00 0.00 0.00 64 1024.4
20260510171321 57 338 9.6 19.1 0.00 0.00 0.00 69 1024.4
20260510170818 60 67 7.8 11.3 0.00 0.00 0.00 63 1024.3
20260510170314 61 36 10.4 19.1 0.00 0.00 0.00 62 1024.2
20260510165809 60 38 13.9 20.0 0.00 0.00 0.00 63 1024.2
20260510165307 59 12 7.0 14.8 0.00 0.00 0.00 62 1023.7
20260510164804 59 54 8.7 18.2 0.00 0.00 0.00 64 1023.9
20260510164301 60 58 7.8 20.0 0.00 0.00 0.00 64 1023.7
20260510163800 60 41 8.7 14.8 0.00 0.00 0.00 62 1023.9
20260510163256 61 57 8.7 13.0 0.00 0.00 0.00 61 1023.5
20260510162756 60 57 6.1 11.3 0.00 0.00 0.00 63 1023.4
20260510162254 59 340 8.7 21.7 0.00 0.00 0.00 65 1023.6
20260510161744 59 357 9.6 20.0 0.00 0.00 0.00 65 1023.4
20260510161240 59 340 3.5 15.6 0.00 0.00 0.00 65 1023.2
20260510160738 58 64 5.2 18.2 0.00 0.00 0.00 66 1023.0
20260510160233 59 69 13.0 20.0 0.00 0.00 0.00 66 1023.0
20260510155729 58 25 7.0 20.0 0.00 0.00 0.00 68 1022.6
20260510155225 58 16 5.2 19.1 0.00 0.00 0.00 67 1022.6
20260510154217 57 34 8.7 13.0 0.00 0.00 0.00 69 1022.8
20260510153208 57 58 7.8 9.6 0.00 0.00 0.00 68 1022.7
20260510152705 57 28 3.5 13.9 0.00 0.00 0.00 71 1022.6
20260510152201 57 337 7.8 15.6 0.00 0.00 0.00 71 1022.3
20260510151658 57 10 5.2 7.8 0.00 0.00 0.00 72 1022.3
20260510151156 56 325 8.7 13.0 0.00 0.00 0.00 74 1022.2
20260510150652 57 67 7.0 18.2 0.00 0.00 0.00 75 1021.9
20260510150147 57 349 7.8 15.6 0.00 0.00 0.00 75 1022.0
20260510145644 57 46 6.1 13.0 0.00 0.00 0.00 75 1021.7
20260510145140 57 301 5.2 19.1 0.00 0.00 0.00 75 1021.6
20260510144636 58 6 6.1 15.6 0.00 0.00 0.00 75 1021.6
20260510144133 57 5 3.5 11.3 0.00 0.00 0.00 75 1021.3
20260510143628 58 280 5.2 9.6 0.00 0.00 0.00 75 1021.1
20260510143125 58 320 10.4 16.5 0.00 0.00 0.00 74 1021.4
20260510142621 58 1 6.1 9.6 0.00 0.00 0.00 73 1021.0
20260510142118 58 347 7.0 15.6 0.00 0.00 0.00 73 1021.1
20260510141615 59 285 6.1 16.5 0.00 0.00 0.00 72 1021.1
20260510141113 59 10 5.2 12.2 0.00 0.00 0.00 74 1021.0
20260510140609 59 317 10.4 16.5 0.00 0.00 0.00 74 1021.3
20260510140109 59 57 7.8 12.2 0.00 0.00 0.00 73 1021.3
20260510135604 59 319 7.8 9.6 0.00 0.00 0.00 74 1020.8
20260510135101 59 47 7.0 19.1 0.00 0.00 0.00 73 1020.8
20260510134558 60 47 8.7 14.8 0.00 0.00 0.00 72 1020.6
20260510134055 60 79 4.3 9.6 0.00 0.00 0.00 72 1020.4
20260510133551 60 32 2.6 13.0 0.00 0.00 0.00 72 1020.4
20260510133047 60 351 5.2 13.9 0.00 0.00 0.00 72 1020.5
20260510132544 60 355 2.6 13.0 0.00 0.00 0.00 72 1020.1
20260510132040 60 3 2.6 9.6 0.00 0.00 0.00 73 1020.0
20260510131538 60 40 5.2 15.6 0.00 0.00 0.00 73 1020.0
20260510131035 60 44 2.6 13.9 0.00 0.00 0.00 72 1019.3
20260510130531 60 12 4.3 7.8 0.00 0.00 0.00 72 1019.3
20260510130029 60 33 1.7 7.8 0.00 0.00 0.00 71 1019.1
20260510125525 60 16 2.6 8.7 0.00 0.00 0.00 71 1019.2
20260510125022 59 2 3.5 6.1 0.00 0.00 0.00 70 1019.0
20260510124518 59 315 3.5 9.6 0.00 0.00 0.00 70 1018.9
20260510124015 59 333 9.6 12.2 0.00 0.00 0.00 69 1018.9
20260510123510 59 326 3.5 13.0 0.00 0.00 0.00 69 1018.8
20260510123007 59 38 4.3 7.0 0.00 0.00 0.00 69 1018.7
20260510122502 58 2 4.3 12.2 0.00 0.00 0.00 68 1018.4
20260510121959 58 2 4.3 9.6 0.00 0.00 0.00 68 1018.5
20260510121456 58 326 5.2 9.6 0.00 0.00 0.00 68 1018.4
20260510120953 58 141 4.3 7.0 0.00 0.00 0.00 68 1018.2
20260510120450 58 70 2.6 7.0 0.00 0.00 0.00 69 1018.1
20260510115946 58 329 2.6 11.3 0.00 0.00 0.00 69 1018.0
20260510115444 58 4 1.7 7.0 0.00 0.00 0.00 68 1017.9
20260510114939 58 58 3.5 8.7 0.00 0.00 0.00 68 1017.4
20260510114436 59 63 10.4 14.8 0.00 0.00 0.00 68 1017.4
20260510113932 59 64 5.2 13.9 0.00 0.00 0.00 68 1017.2
20260510113427 60 39 5.2 8.7 0.00 0.00 0.00 67 1017.5
20260510112926 60 269 7.0 9.6 0.00 0.00 0.00 71 1017.3
20260510112422 61 321 4.3 7.8 0.00 0.00 0.00 78 1017.0
20260510111918 61 24 7.0 15.6 0.00 0.00 0.00 78 1017.1
20260510111414 61 44 9.6 14.8 0.00 0.00 0.00 79 1017.3
20260510110910 61 44 5.2 13.9 0.00 0.00 0.00 79 1017.0
20260510110407 61 5 2.6 12.2 0.00 0.00 0.00 78 1017.0
20260510105902 62 53 7.8 13.0 0.00 0.00 0.00 78 1016.5
20260510105357 61 48 7.8 14.8 0.00 0.00 0.00 79 1016.7
20260510104853 61 57 3.5 11.3 0.00 0.00 0.00 79 1016.6
20260510104350 61 62 6.1 12.2 0.00 0.00 0.00 79 1016.3
20260510103846 61 31 1.7 7.8 0.00 0.00 0.00 79 1016.2
20260510103343 61 60 1.7 12.2 0.00 0.00 0.00 78 1015.9
20260510102838 61 25 1.7 5.2 0.00 0.00 0.00 77 1016.2
20260510102329 62 70 1.7 7.8 0.00 0.00 0.00 77 1015.8
20260510101827 62 50 5.2 11.3 0.00 0.00 0.00 76 1015.8
20260510101325 62 44 0.9 11.3 0.00 0.00 0.00 75 1015.8
20260510100820 62 35 3.5 6.1 0.00 0.00 0.00 75 1015.3
20260510100318 63 33 3.5 7.8 0.00 0.00 0.00 75 1014.9
20260510095814 63 54 3.5 7.8 0.00 0.00 0.00 75 1014.9
20260510095309 63 49 7.8 13.0 0.00 0.00 0.00 74 1014.9
20260510094808 63 54 7.8 9.6 0.00 0.00 0.00 74 1015.0
20260510094303 63 58 6.1 7.8 0.00 0.00 0.00 74 1014.9
20260510093800 64 58 7.8 9.6 0.00 0.00 0.00 73 1014.7
20260510093257 64 56 3.5 12.2 0.00 0.00 0.00 72 1014.6
20260510092753 64 75 9.6 13.0 0.00 0.00 0.00 72 1014.5
20260510092249 65 44 7.0 16.5 0.00 0.00 0.00 71 1014.5
20260510091745 64 63 6.1 15.6 0.00 0.00 0.00 71 1014.4
20260510091242 65 87 6.1 15.6 0.00 0.00 0.00 71 1014.4
20260510090738 65 52 9.6 12.2 0.00 0.00 0.00 69 1014.2
20260510090235 65 60 6.1 13.0 0.00 0.00 0.00 68 1014.2
20260510085730 65 47 9.6 14.8 0.00 0.00 0.00 67 1014.4
20260510085225 65 356 7.8 14.8 0.00 0.00 0.00 66 1014.5
20260510084721 66 46 4.3 7.8 0.00 0.00 0.00 64 1014.1
20260510084219 66 77 5.2 11.3 0.00 0.00 0.00 62 1014.2
20260510083716 67 63 5.2 9.6 0.00 0.00 0.00 60 1014.0
20260510083213 67 36 9.6 13.9 0.00 0.00 0.00 59 1013.8
20260510082708 67 44 5.2 12.2 0.00 0.00 0.00 57 1013.7
20260510082205 67 54 7.0 12.2 0.00 0.00 0.00 56 1013.8
20260510081705 67 73 7.0 9.6 0.00 0.00 0.00 53 1013.8
20260510081201 67 57 5.2 8.7 0.00 0.00 0.00 48 1013.9
20260510080700 68 61 8.7 13.0 0.00 0.00 0.00 44 1013.7
20260510080157 69 41 7.8 9.6 0.00 0.00 0.00 38 1013.5
20260510075654 70 52 7.8 13.9 0.00 0.00 0.00 34 1013.6
20260510075152 70 52 7.8 15.6 0.00 0.00 0.00 31 1013.6
20260510074649 70 87 7.0 9.6 0.00 0.00 0.00 26 1013.6
20260510074144 71 59 7.0 12.2 0.00 0.00 0.00 25 1013.7
20260510073641 70 42 6.1 9.6 0.00 0.00 0.00 24 1013.7
20260510073137 72 45 6.1 12.2 0.00 0.00 0.00 23 1013.9
20260510072633 71 355 1.7 7.0 0.00 0.00 0.00 23 1013.9
20260510072130 73 330 2.6 3.5 0.00 0.00 0.00 22 1013.9
20260510071626 71 66 2.6 7.8 0.00 0.00 0.00 22 1014.2
20260510071124 70 1 1.7 2.6 0.00 0.00 0.00 23 1014.4
20260510070621 71 57 4.3 7.0 0.00 0.00 0.00 22 1014.1
20260510070118 69 14 0.9 7.0 0.00 0.00 0.00 23 1014.1
20260510065614 73 349 0.9 5.2 0.00 0.00 0.00 21 1014.0
20260510065110 73 97 5.2 6.1 0.00 0.00 0.00 21 1013.8
20260510064606 72 125 3.5 3.5 0.00 0.00 0.00 21 1013.9
20260510064104 73 160 0.0 3.5 0.00 0.00 0.00 21 1013.6
20260510063600 73 123 1.7 5.2 0.00 0.00 0.00 21 1013.6
20260510063058 72 111 1.7 5.2 0.00 0.00 0.00 21 1013.6
20260510062553 72 132 3.5 7.0 0.00 0.00 0.00 21 1013.2
20260510062048 72 101 3.5 5.2 0.00 0.00 0.00 21 1013.3
20260510061545 73 111 2.6 2.6 0.00 0.00 0.00 21 1013.2
20260510061042 74 166 2.6 3.5 0.00 0.00 0.00 20 1013.5
20260510060538 75 97 3.5 5.2 0.00 0.00 0.00 20 1013.5
20260510060035 73 145 2.6 3.5 0.00 0.00 0.00 20 1013.3
20260510055531 73 195 0.0 2.6 0.00 0.00 0.00 21 1013.6
20260510055029 72 153 0.0 0.0 0.00 0.00 0.00 21 1013.3
20260510054525 73 153 0.0 0.0 0.00 0.00 0.00 21 1013.2
20260510054020 72 165 1.7 2.6 0.00 0.00 0.00 21 1013.1
20260510053515 72 138 0.0 0.0 0.00 0.00 0.00 23 1013.2
20260510053012 73 136 0.0 0.0 0.00 0.00 0.00 22 1013.1
20260510052508 73 138 0.9 0.9 0.00 0.00 0.00 21 1013.2
20260510052004 75 219 0.9 1.7 0.00 0.00 0.00 20 1013.2
20260510051459 75 280 0.0 0.0 0.00 0.00 0.00 20 1013.2
20260510050956 76 253 0.9 1.7 0.00 0.00 0.00 20 1013.3
20260510050454 76 114 0.9 1.7 0.00 0.00 0.00 19 1013.3
20260510045950 77 78 1.7 2.6 0.00 0.00 0.00 18 1013.2
20260510045448 77 100 0.0 0.9 0.00 0.00 0.00 18 1013.6
20260510044944 76 70 1.7 2.6 0.00 0.00 0.00 18 1013.3
20260510044441 75 322 0.0 2.6 0.00 0.00 0.00 19 1013.5
20260510043938 73 0 1.7 2.6 0.00 0.00 0.00 20 1013.6
20260510043434 73 8 0.9 1.7 0.00 0.00 0.00 20 1013.2
20260510042932 71 337 2.6 3.5 0.00 0.00 0.00 21 1013.0
20260510042428 70 0 0.9 1.7 0.00 0.00 0.00 22 1013.1
20260510041924 69 240 0.0 0.0 0.00 0.00 0.00 24 1012.8
20260510041421 70 240 0.0 0.0 0.00 0.00 0.00 24 1012.8
20260510040919 70 240 0.0 0.0 0.00 0.00 0.00 23 1012.9
20260510040415 70 240 0.0 0.0 0.00 0.00 0.00 23 1012.7
20260510035911 71 240 0.0 0.0 0.00 0.00 0.00 23 1012.8
20260510035408 72 240 0.0 0.0 0.00 0.00 0.00 22 1012.6
20260510034902 72 240 0.0 0.0 0.00 0.00 0.00 22 1012.8
20260510034401 72 240 0.0 0.0 0.00 0.00 0.00 21 1012.6
20260510033857 72 240 0.0 0.0 0.00 0.00 0.00 21 1012.7
20260510033354 73 240 0.0 0.0 0.00 0.00 0.00 21 1012.7
20260510032850 73 240 0.0 0.0 0.00 0.00 0.00 20 1012.8
20260510032347 74 305 0.0 0.0 0.00 0.00 0.00 20 1012.6
20260510031837 74 305 0.0 0.0 0.00 0.00 0.00 20 1012.4
20260510031333 74 284 0.0 0.0 0.00 0.00 0.00 20 1012.7
20260510030833 74 282 0.0 0.0 0.00 0.00 0.00 20 1012.2
20260510030329 75 263 0.0 0.0 0.00 0.00 0.00 19 1012.3
20260510025827 76 255 0.0 2.6 0.00 0.00 0.00 19 1012.1
20260510025324 75 236 0.9 2.6 0.00 0.00 0.00 19 1012.1
20260510024821 75 254 0.0 2.6 0.00 0.00 0.00 19 1011.8
20260510024318 75 245 0.0 0.0 0.00 0.00 0.00 19 1012.0
20260510023814 75 238 0.9 1.7 0.00 0.00 0.00 19 1011.9
20260510023310 76 266 0.0 0.0 0.00 0.00 0.00 19 1011.6
20260510022808 77 226 0.0 0.0 0.00 0.00 0.00 18 1011.6
20260510022307 78 277 0.0 0.0 0.00 0.00 0.00 18 1011.6
20260510021806 78 219 0.0 1.7 0.00 0.00 0.00 18 1011.6
20260510021304 78 222 0.0 0.0 0.00 0.00 0.00 17 1011.6
20260510020800 79 217 1.7 2.6 0.00 0.00 0.00 17 1011.6
20260510020259 80 242 1.7 2.6 0.00 0.00 0.00 17 1011.5
20260510015755 80 215 4.3 7.8 0.00 0.00 0.00 17 1011.5
20260510015252 81 160 2.6 6.1 0.00 0.00 0.00 16 1011.4
20260510014747 82 234 4.3 6.1 0.00 0.00 0.00 16 1011.5
20260510014245 83 278 3.5 7.0 0.00 0.00 0.00 15 1011.2
20260510013741 82 262 1.7 7.0 0.00 0.00 0.00 16 1011.0
20260510013237 82 178 3.5 5.2 0.00 0.00 0.00 16 1011.3
20260510012737 82 209 1.7 6.1 0.00 0.00 0.00 16 1011.4
20260510012232 82 258 0.9 5.2 0.00 0.00 0.00 16 1011.5
20260510011732 83 240 1.7 6.1 0.00 0.00 0.00 16 1011.5
20260510011228 83 280 1.7 3.5 0.00 0.00 0.00 16 1011.3
20260510010725 83 147 4.3 11.3 0.00 0.00 0.00 15 1011.4
20260510010221 84 250 1.7 7.8 0.00 0.00 0.00 15 1011.3
20260510005718 85 322 4.3 7.0 0.00 0.00 0.00 14 1011.4
20260510005214 86 239 5.2 9.6 0.00 0.00 0.00 14 1011.3
20260510004713 87 245 3.5 7.0 0.00 0.00 0.00 14 1011.4
20260510004211 87 291 2.6 3.5 0.00 0.00 0.00 14 1011.2
20260510003708 87 259 0.9 7.0 0.00 0.00 0.00 14 1011.2
20260510003203 88 215 5.2 8.7 0.00 0.00 0.00 14 1011.3
20260510002657 87 262 3.5 7.8 0.00 0.00 0.00 14 1011.2
20260510002155 87 237 2.6 9.6 0.00 0.00 0.00 14 1011.2
20260510001652 87 279 5.2 11.3 0.00 0.00 0.00 14 1011.5
20260510001150 87 238 1.7 7.0 0.00 0.00 0.00 14 1011.0
20260510000645 87 197 0.9 2.6 0.00 0.00 0.00 14 1011.3
20260510000143 87 180 6.1 7.8 0.00 0.00 0.00 14 1011.6
20260509235639 86 60 2.6 12.2 0.00 0.00 0.00 14 1011.4
20260509235136 88 219 7.8 13.0 0.00 0.00 0.00 14 1011.1
20260509234631 88 261 2.6 7.8 0.00 0.00 0.00 13 1011.1
20260509234129 88 257 3.5 8.7 0.00 0.00 0.00 13 1011.2
20260509233627 89 236 3.5 9.6 0.00 0.00 0.00 13 1011.0
20260509233124 89 267 3.5 7.0 0.00 0.00 0.00 13 1011.2
20260509232620 91 271 1.7 6.1 0.00 0.00 0.00 12 1011.0
20260509232117 91 242 2.6 7.8 0.00 0.00 0.00 12 1011.0
20260509231614 92 202 0.9 3.5 0.00 0.00 0.00 12 1010.9
20260509231112 91 271 3.5 7.8 0.00 0.00 0.00 12 1010.9
20260509230608 91 310 2.6 7.0 0.00 0.00 0.00 12 1011.2
20260509230106 91 188 1.7 3.5 0.00 0.00 0.00 12 1011.1
20260509225601 92 216 0.0 5.2 0.00 0.00 0.00 11 1011.2
20260509225056 91 296 2.6 5.2 0.00 0.00 0.00 12 1011.1
20260509224552 91 271 5.2 7.8 0.00 0.00 0.00 12 1011.0
20260509224050 90 64 4.3 7.0 0.00 0.00 0.00 11 1011.1
20260509223546 92 315 1.7 5.2 0.00 0.00 0.00 11 1011.3
20260509223044 91 308 1.7 3.5 0.00 0.00 0.00 11 1011.4
20260509222540 92 270 1.7 5.2 0.00 0.00 0.00 11 1011.1
20260509222036 92 226 2.6 6.1 0.00 0.00 0.00 11 1011.4
20260509221532 93 337 3.5 8.7 0.00 0.00 0.00 11 1011.3
20260509221028 93 229 3.5 6.1 0.00 0.00 0.00 10 1011.4
20260509220524 91 192 2.6 5.2 0.00 0.00 0.00 11 1011.8
20260509220020 92 285 6.1 8.7 0.00 0.00 0.00 11 1011.9
20260509215515 93 304 4.3 6.1 0.00 0.00 0.00 10 1011.6
20260509215013 94 331 6.1 8.7 0.00 0.00 0.00 11 1011.5
20260509214510 93 245 2.6 8.7 0.00 0.00 0.00 11 1011.8
20260509214007 92 281 7.0 12.2 0.00 0.00 0.00 11 1011.9
20260509213503 92 263 5.2 11.3 0.00 0.00 0.00 10 1011.9
20260509213000 92 40 3.5 8.7 0.00 0.00 0.00 11 1012.1
20260509212457 92 345 7.0 13.9 0.00 0.00 0.00 11 1012.0
20260509211954 91 310 9.6 13.0 0.00 0.00 0.00 11 1012.3
20260509211449 89 338 4.3 14.8 0.00 0.00 0.00 11 1012.2
20260509210946 92 277 5.2 12.2 0.00 0.00 0.00 11 1012.3
20260509210443 92 335 3.5 14.8 0.00 0.00 0.00 11 1012.6
20260509205939 91 313 3.5 12.2 0.00 0.00 0.00 11 1012.7
20260509205433 91 240 4.3 12.2 0.00 0.00 0.00 11 1012.7
20260509204929 92 327 5.2 11.3 0.00 0.00 0.00 11 1012.8
20260509204426 93 11 4.3 7.0 0.00 0.00 0.00 11 1012.7
20260509203923 92 217 0.9 7.8 0.00 0.00 0.00 11 1012.9
20260509203418 91 236 7.8 9.6 0.00 0.00 0.00 11 1013.1
20260509202916 90 316 10.4 15.6 0.00 0.00 0.00 11 1013.0
20260509202412 90 308 7.0 7.8 0.00 0.00 0.00 11 1013.1
20260509201907 89 323 3.5 7.0 0.00 0.00 0.00 13 1013.2
20260509201403 90 314 8.7 14.8 0.00 0.00 0.00 12 1013.3
20260509200900 91 302 3.5 11.3 0.00 0.00 0.00 11 1013.5
20260509200400 91 316 5.2 8.7 0.00 0.00 0.00 12 1013.6
20260509195857 91 347 7.0 11.3 0.00 0.00 0.00 11 1013.6
20260509195357 89 295 3.5 9.6 0.00 0.00 0.00 12 1013.5
20260509194856 89 272 3.5 7.8 0.00 0.00 0.00 13 1013.6
20260509194353 89 111 1.7 11.3 0.00 0.00 0.00 12 1013.8
20260509193850 91 296 7.8 11.3 0.00 0.00 0.00 12 1013.8
20260509193349 92 321 9.6 14.8 0.00 0.00 0.00 12 1013.6
20260509192846 91 235 2.6 7.8 0.00 0.00 0.00 12 1013.8